Weather History for Cut Bank, MT

Change the Weather History Date:

Monday, August 5, 2013

  Actual Average Record
Temperature  
Mean Temperature 62 °F 66 °F  
Max Temperature 75 °F 82 °F 107 °F (1961)
Min Temperature 49 °F 50 °F 34 °F (1924)
Degree Days  
Heating Degree Days 3 2  
Month to date heating degree days 20 10  
Since 1 June heating degree days 270 329  
Since 1 July heating degree days 61 96  
Cooling Degree Days 0 3  
Month to date cooling degree days 0 15  
Year to date cooling degree days 99 104  
Since 1 June cooling degree days 97 102  
Growing Degree Days 12 (Base 50)    
Moisture  
Dew Point 51 °F    
Average Humidity 65    
Maximum Humidity 89    
Minimum Humidity 41    
Precipitation  
Precipitation 0.20 in 0.03 in 0.70 in (1942)
Month to date precipitation 0.77 0.18  
Year to date precipitation 10.13 7.65  
Snow  
Snow 0.00 in - - ()
Snow Depth 0.00 in    
Sea Level Pressure  
Sea Level Pressure 29.96 in    
Wind  
Wind Speed 9 mph (NNW)    
Max Wind Speed 32 mph    
Max Gust Speed 43 mph    
Visibility 9 miles    
Events Rain    
T = Trace of Precipitation, MM = Missing Value Source: NWS Daily Summary

Daily Weather History Graph

Daily Weather History Graph

Search for Another Location

Airport:

Trip Planner

Search our weather history database for the weather conditions in past years. The results will help you decide how hot, cold, wet, or windy it might be!

Date:

Astronomy

Aug. 05, 2013 Rise Set
Actual Time 6:09 AM MDT 9:00 PM MDT
Civil Twilight 5:33 AM MDT 9:36 PM MDT
Nautical Twilight 4:46 AM MDT 10:22 PM MDT
Astronomical Twilight 3:50 AM MDT 11:18 PM MDT
Moon 5:09 AM MDT (8/5) 7:59 PM MDT (8/5)
Length of Visible Light 16h 03m
Length of Day
14h 51m
Waning Crescent, 1% of the Moon is Illuminated
Aug 5
Waning Crescent
Aug 6
New
Aug 14
First Quarter
Aug 20
Full
Aug 28
Last Quarter

Hourly Weather History & Observations

Time (MDT) Temp. Dew Point Humidity Pressure Visibility Wind Dir Wind Speed Gust Speed Precip Events Conditions
12:56 AM 53.1 °F 48.9 °F 86% 30.01 in 10.0 mi West 8.1 mph - N/A   Clear
1:56 AM 54.0 °F 50.0 °F 86% 30.00 in 10.0 mi West 6.9 mph - N/A   Clear
2:56 AM 53.1 °F 50.0 °F 89% 29.98 in 10.0 mi WNW 8.1 mph - N/A   Clear
3:56 AM 52.0 °F 48.9 °F 89% 29.97 in 10.0 mi WNW 8.1 mph - N/A   Clear
4:56 AM 51.1 °F 48.0 °F 89% 29.96 in 10.0 mi Calm Calm - N/A   Clear
5:56 AM 50.0 °F 46.9 °F 89% 29.95 in 10.0 mi WSW 4.6 mph - N/A   Clear
6:56 AM 51.1 °F 48.0 °F 89% 29.94 in 10.0 mi WNW 5.8 mph - N/A   Clear
7:56 AM 55.9 °F 51.1 °F 84% 29.94 in 10.0 mi NW 8.1 mph - N/A   Clear
8:56 AM 62.1 °F 52.0 °F 70% 29.94 in 10.0 mi NNW 9.2 mph - N/A   Clear
9:56 AM 66.9 °F 52.0 °F 59% 29.93 in 10.0 mi NNW 9.2 mph - N/A   Clear
10:56 AM 70.0 °F 50.0 °F 49% 29.94 in 10.0 mi NNW 6.9 mph - N/A   Clear
11:56 AM 72.0 °F 48.9 °F 44% 29.94 in 10.0 mi NNW 6.9 mph - N/A   Clear
12:56 PM 73.0 °F 48.0 °F 41% 29.92 in 10.0 mi Calm Calm - N/A   Clear
1:18 PM 62.6 °F 57.2 °F 82% 30.00 in 1.8 mi NNW 18.4 mph 25.3 mph 0.16 in Rain Heavy Rain
1:26 PM 62.6 °F 53.6 °F 72% 29.99 in 3.0 mi North 17.3 mph - 0.19 in Rain Light Rain
1:56 PM 68.0 °F 55.9 °F 65% 29.94 in 10.0 mi NNE 10.4 mph - 0.19 in   Scattered Clouds
2:56 PM 73.9 °F 53.1 °F 48% 29.91 in 10.0 mi North 12.7 mph 19.6 mph N/A   Clear
3:27 PM 66.2 °F 51.8 °F 60% 30.00 in 10.0 mi North 29.9 mph 42.6 mph N/A   Squalls
3:56 PM 64.0 °F 54.0 °F 70% 29.96 in 10.0 mi North 21.9 mph 28.8 mph 0.01 in   Scattered Clouds
4:56 PM 68.0 °F 51.1 °F 55% 29.93 in 10.0 mi North 15.0 mph - N/A   Clear
5:56 PM 66.9 °F 48.9 °F 52% 29.94 in 10.0 mi North 15.0 mph - N/A   Partly Cloudy
6:56 PM 63.0 °F 51.1 °F 65% 29.94 in 10.0 mi North 12.7 mph 21.9 mph 0.00 in   Overcast
7:56 PM 66.9 °F 51.1 °F 57% 29.93 in 10.0 mi NNW 9.2 mph - N/A   Clear
8:56 PM 60.1 °F 50.0 °F 69% 29.95 in 10.0 mi North 8.1 mph - N/A   Clear
9:56 PM 57.9 °F 50.0 °F 75% 29.97 in 10.0 mi NNW 10.4 mph - N/A   Clear
10:56 PM 57.0 °F 48.9 °F 74% 29.96 in 10.0 mi NNW 10.4 mph - N/A   Clear
11:56 PM 54.0 °F 50.0 °F 86% 29.97 in 10.0 mi WNW 5.8 mph - N/A   Clear